FMMIFMMT

Guest
Details From FMMI - IVATO
To FMMT - TOAMASINA
Flight Number -
Tags generated
Created
Modified
Stats Distance 117 nm / 216 km
Max Altitude 9,100 ft / 2,774 m
Waypoints 3
Social Downloads 1
Likes 0
Share VATSIM

Download

Looking for another format? Having issues loading an existing format? Contact us
Advertisement - Login to hide

Notes

Basic altitude profile: - Ascent Rate: 1000ft/min - Ascent Speed: 100kts - Cruise Altitude: 7000ft - Cruise Speed: 150kts - Descent Rate: 1000ft/min - Descent Speed: 140kts Options: - Use NATs: yes - Use PACOTS: yes - Use low airways: yes - Use high airways: yes

Route

FMMI IXARI FMMT

ID Type Via Altitude Latitude Longitude Leg Dist Tot Dist Heading (true) Name
O FMMI APT - 0 ft / 0 m -18.79695˚ 47.47881˚ - 0 nm - IVATO
IXARI FIX - 9,100 ft / 2,774 m -18.37944˚ 48.69694˚ 73 nm 73 nm 70° / 70° -
O FMMT APT - 0 ft / 0 m -18.10952˚ 49.39254˚ 42 nm 116 nm 68° / 68° TOAMASINA

Altitude Profile

Advertisement - Login to hide

FMMI

Details ICAO FMMI (TNR)
Name IVATO
Region Comoros, Mayotte, Réunion and Madagascar
Timezone Indian/Antananarivo (UTC+3.0)
Stats Elevation 4,198 ft / 1,280 m (AMSL)
Location -18.796950° 47.478806°
Runways 1
Magnetic Variation 15.161° W

METAR

FMMI 150300Z 07001KT 9999 FEW010 20/18 Q1019 NOSIG

Decode

TAF

TAF FMMI 141700Z 1418/1524 06007KT 9999 FEW007 SCT017CB BKN020 PROB30 TEMPO 1418/1501 4000 TSRA BECMG 1506/1509 16010KT TEMPO 1510/1524 4000 TSRA

Decode

Departure Runways

ID Width Length Bearing (true) Bearing (mag) Surface Threshold Offset Overrun Length
11 148 ft / 45 m 10,167 ft / 3,099 m 98.92° 114.08° Asphalt 0 ft / 0 m 90 ft / 27 m
29 148 ft / 45 m 10,167 ft / 3,099 m 278.91° 294.07° Asphalt 0 ft / 0 m 90 ft / 27 m

FMMT

Details ICAO FMMT (TMM)
Name TOAMASINA
Region Comoros, Mayotte, Réunion and Madagascar
Timezone Indian/Antananarivo (UTC+3.0)
Stats Elevation 22 ft / 7 m (AMSL)
Location -18.109517° 49.392536°
Runways 1
Magnetic Variation 14.779° W

METAR

FMMT 150300Z 00000KT 9999 VCSH FEW017 BKN033 24/23 Q1012 NOSIG

Decode

TAF

TAF FMMT 141700Z 1418/1518 VRB07KT 9999 FEW007 SCT017CB BKN033 PROB30 TEMPO 1418/1506 4000 TSRA BECMG 1506/1509 06010KT PROB30 TEMPO 1514/1518 4000 TSRA

Decode

Destination Runways

ID Width Length Bearing (true) Bearing (mag) Surface Threshold Offset Overrun Length
01 131 ft / 40 m 7,270 ft / 2,216 m 353.90° 8.68° Asphalt 0 ft / 0 m 100 ft / 30 m
19 131 ft / 40 m 7,270 ft / 2,216 m 173.90° 188.68° Asphalt 0 ft / 0 m 197 ft / 60 m

Approach Navaids

Runway Type Ident Frequency Range Bearing (true) Bearing (mag) Slope Elevation
19 Localiser TO 110.30 MHz 18 nm / 33 km 173.77° 188.55° - 22 ft / 7 m (AMSL)
19 Glidescope TO 110.30 MHz 10 nm / 19 km 173.90° 188.68° 3.00° 22 ft / 7 m (AMSL)

Popular Alternatives